CW8944 Weather Reports


Display with metric or nautical units.
time (UTC)temp
F
wind
direction
speed
MPH
gust
MPH
rain 1hr
in
rain 24hr
in
rain mn
in
humidity
%
barometer
mb
20240416021513 48 0 0.0 2.0 0.00 0.00 0.00 83 1013.4
20240416021016 48 0 0.0 3.0 0.00 0.00 0.00 83 1013.4
20240416020512 48 301 1.0 3.0 0.00 0.00 0.00 83 1013.4
20240416020025 48 0 0.0 2.0 0.00 0.00 0.00 83 1013.4
20240416015512 48 0 0.0 2.0 0.00 0.00 0.00 83 1013.4
20240416015012 48 302 1.0 3.0 0.00 0.00 0.00 83 1013.4
20240416014534 48 301 1.0 3.0 0.00 0.00 0.00 82 1013.3
20240416014014 48 301 1.0 3.0 0.00 0.00 0.00 81 1013.3
20240416013511 48 301 1.0 3.0 0.00 0.00 0.00 80 1013.2
20240416013012 48 0 0.0 0.0 0.00 0.00 0.00 79 1013.3
20240416012507 49 0 0.0 0.0 0.00 0.00 0.00 78 1013.2
20240416012012 49 0 0.0 0.0 0.00 0.00 0.00 77 1013.2
20240416011513 50 0 0.0 0.0 0.00 0.00 0.00 77 1013.1
20240416011011 50 0 0.0 0.0 0.00 0.00 0.00 76 1013.1
20240416010511 50 0 0.0 0.0 0.00 0.00 0.00 76 1013.0
20240416010016 51 0 0.0 0.0 0.00 0.00 0.00 76 1012.8
20240416005511 51 0 0.0 0.0 0.00 0.00 0.00 76 1012.8
20240416005009 51 0 0.0 0.0 0.00 0.00 0.00 75 1012.8
20240416004522 51 0 0.0 0.0 0.00 0.00 0.00 74 1012.7
20240416004007 51 0 0.0 0.0 0.00 0.00 0.00 74 1012.7
20240416003508 51 0 0.0 0.0 0.00 0.00 0.00 73 1012.7
20240416003013 51 0 0.0 2.0 0.00 0.00 0.00 76 1012.5
20240416002507 51 0 0.0 3.0 0.00 0.00 0.00 72 1012.3
20240416002010 52 0 1.0 3.0 0.00 0.00 0.00 72 1012.2
20240416001518 52 0 0.0 2.0 0.00 0.00 0.00 71 1012.1
20240416001010 52 301 0.0 2.0 0.00 0.00 0.00 71 1011.9
20240416000510 52 0 0.0 2.0 0.00 0.00 0.00 70 1011.7
20240416000012 53 301 0.0 4.0 0.00 0.00 0.00 69 1011.7
20240415235511 53 301 0.0 4.0 0.00 0.00 0.00 69 1011.6
20240415235007 53 305 1.0 3.0 0.00 0.00 0.00 68 1011.5
20240415234511 53 0 0.0 3.0 0.00 0.00 0.00 68 1011.4
20240415234007 53 0 0.0 5.0 0.00 0.00 0.00 68 1011.3
20240415233506 54 306 1.0 5.0 0.00 0.00 0.00 67 1011.2
20240415233016 54 0 0.0 5.0 0.00 0.00 0.00 67 1011.1
20240415232513 54 303 1.0 5.0 0.00 0.00 0.00 66 1011.2
20240415232012 54 288 0.0 6.0 0.00 0.00 0.00 65 1011.0
20240415231516 54 286 2.0 9.0 0.00 0.00 0.00 64 1011.0
20240415231007 55 270 2.0 10.0 0.00 0.00 0.00 63 1010.9
20240415230508 55 321 3.0 10.0 0.00 0.00 0.00 62 1010.8
20240415230014 55 320 4.0 10.0 0.00 0.00 0.00 61 1010.7
20240415225510 55 352 2.0 10.0 0.00 0.00 0.00 62 1010.8
20240415225010 55 310 4.0 10.0 0.00 0.00 0.00 61 1010.7
20240415224512 55 304 3.0 8.0 0.00 0.00 0.00 61 1010.7
20240415224008 56 324 4.0 8.0 0.00 0.00 0.00 61 1010.6
20240415223513 56 308 2.0 8.0 0.00 0.00 0.00 61 1010.5
20240415223014 56 321 4.0 7.0 0.00 0.00 0.00 60 1010.4
20240415222512 56 338 3.0 12.0 0.00 0.00 0.00 60 1010.2
20240415222014 57 333 4.0 12.0 0.00 0.00 0.00 60 1010.1
20240415221517 57 316 1.0 9.0 0.00 0.00 0.00 60 1010.2
20240415221011 57 318 4.0 10.0 0.00 0.00 0.00 59 1010.1
20240415220512 57 325 3.0 10.0 0.00 0.00 0.00 60 1010.1
20240415220015 57 358 2.0 9.0 0.00 0.00 0.00 60 1010.0
20240415215515 58 331 3.0 9.0 0.00 0.00 0.00 60 1010.0
20240415215012 57 305 2.0 10.0 0.00 0.00 0.00 60 1009.8
20240415214527 58 353 4.0 10.0 0.00 0.00 0.00 60 1009.8
20240415214011 58 345 4.0 12.0 0.00 0.00 0.00 60 1009.7
20240415213515 58 333 4.0 12.0 0.00 0.00 0.00 60 1009.6
20240415213015 58 347 3.0 11.0 0.00 0.00 0.00 61 1009.7
20240415212511 58 338 6.0 11.0 0.00 0.00 0.00 60 1009.6
20240415212012 59 308 3.0 9.0 0.00 0.00 0.00 59 1009.6
20240415211516 60 313 4.0 9.0 0.00 0.00 0.00 58 1009.5
20240415211012 61 321 4.0 10.0 0.00 0.00 0.00 57 1009.5
20240415210512 62 325 3.0 11.0 0.00 0.00 0.00 55 1009.3
20240415210015 62 340 5.0 11.0 0.00 0.00 0.00 54 1009.1
20240415205512 63 321 3.0 11.0 0.00 0.00 0.00 54 1008.9
20240415205012 63 352 5.0 12.0 0.00 0.00 0.00 55 1008.9
20240415204518 61 360 3.0 12.0 0.00 0.00 0.00 58 1008.7
20240415204012 61 347 5.0 12.0 0.00 0.00 0.00 56 1008.6
20240415203511 61 314 4.0 14.0 0.00 0.00 0.00 56 1008.6
20240415203017 62 324 5.0 15.0 0.00 0.00 0.00 54 1008.3
20240415202512 63 344 5.0 15.0 0.00 0.00 0.00 52 1008.3
20240415202017 64 359 6.0 11.0 0.00 0.00 0.00 50 1008.2
20240415201518 63 353 4.0 12.0 0.00 0.00 0.00 51 1008.1
20240415201011 64 347 5.0 12.0 0.00 0.00 0.00 48 1007.9
20240415200509 64 290 4.0 11.0 0.00 0.00 0.00 47 1007.7
20240415200015 64 272 5.0 11.0 0.00 0.00 0.00 48 1007.5
20240415195511 64 335 5.0 11.0 0.00 0.00 0.00 48 1007.4
20240415195016 64 302 4.0 15.0 0.00 0.00 0.00 46 1007.3
20240415194515 65 335 5.0 15.0 0.00 0.00 0.00 45 1007.2
20240415194012 66 343 5.0 12.0 0.00 0.00 0.00 45 1007.0
20240415193511 65 347 1.0 6.0 0.00 0.00 0.00 44 1006.9
20240415193020 65 296 2.0 7.0 0.00 0.00 0.00 44 1006.7
20240415192512 65 269 2.0 10.0 0.00 0.00 0.00 43 1006.6
20240415192013 66 281 3.0 10.0 0.00 0.00 0.00 42 1006.6
20240415191521 66 297 3.0 8.0 0.00 0.00 0.00 41 1006.6
20240415191011 67 328 1.0 8.0 0.00 0.00 0.00 41 1006.6
20240415190512 67 288 3.0 10.0 0.00 0.00 0.00 40 1006.5
20240415190017 68 256 3.0 10.0 0.00 0.00 0.00 39 1006.6
20240415185511 68 243 4.0 10.0 0.00 0.00 0.00 39 1006.5
20240415185011 67 262 1.0 8.0 0.00 0.00 0.00 42 1006.6
20240415184515 66 259 3.0 8.0 0.00 0.00 0.00 43 1006.5
20240415184011 66 258 3.0 8.0 0.00 0.00 0.00 42 1006.5
20240415183512 67 330 4.0 10.0 0.00 0.00 0.00 40 1006.6
20240415183015 66 317 3.0 12.0 0.00 0.00 0.00 42 1006.6
20240415182511 66 292 2.0 12.0 0.00 0.00 0.00 43 1006.6
20240415182012 66 253 4.0 12.0 0.00 0.00 0.00 40 1006.6
20240415181519 67 269 2.0 9.0 0.00 0.00 0.00 40 1006.6
20240415181013 67 0 1.0 9.0 0.00 0.00 0.00 40 1006.7
20240415180512 68 347 3.0 9.0 0.00 0.00 0.00 40 1006.6
20240415180015 67 310 3.0 13.0 0.00 0.00 0.00 43 1006.6
20240415175512 67 254 4.0 13.0 0.00 0.00 0.00 40 1006.6
20240415175012 67 292 3.0 9.0 0.00 0.00 0.00 41 1006.7
20240415174515 66 319 4.0 10.0 0.00 0.00 0.00 42 1006.6
20240415174012 66 315 4.0 10.0 0.00 0.00 0.00 43 1006.7
20240415173512 65 348 5.0 12.0 0.00 0.00 0.00 44 1006.8
20240415173015 65 298 5.0 12.0 0.00 0.00 0.00 43 1007.0
20240415172512 65 350 4.0 10.0 0.00 0.00 0.00 46 1006.9
20240415172013 65 311 2.0 11.0 0.00 0.00 0.00 46 1007.0
20240415171515 64 290 3.0 11.0 0.00 0.00 0.00 46 1007.0
20240415171012 63 271 3.0 11.0 0.00 0.00 0.00 46 1007.1
20240415170514 63 261 4.0 14.0 0.00 0.00 0.00 47 1007.0
20240415170015 64 0 0.0 14.0 0.00 0.00 0.00 48 1007.0
20240415165511 65 253 4.0 14.0 0.00 0.00 0.00 46 1006.9
20240415165011 65 311 2.0 9.0 0.00 0.00 0.00 48 1006.8
20240415164527 64 324 3.0 9.0 0.00 0.00 0.00 48 1006.8
20240415164011 64 318 5.0 10.0 0.00 0.00 0.00 47 1006.8
20240415163511 65 283 4.0 10.0 0.00 0.00 0.00 49 1006.9
20240415163014 64 293 3.0 8.0 0.00 0.00 0.00 48 1006.9
20240415162516 63 316 2.0 10.0 0.00 0.00 0.00 51 1006.8
20240415162014 63 335 3.0 10.0 0.00 0.00 0.00 50 1006.9
20240415161514 64 254 3.0 10.0 0.00 0.00 0.00 51 1006.9
20240415161012 65 0 3.0 10.0 0.00 0.00 0.00 50 1006.8
20240415160511 65 354 3.0 10.0 0.00 0.00 0.00 53 1006.8
20240415160015 65 329 3.0 11.0 0.00 0.00 0.00 51 1006.9
20240415155512 65 345 5.0 11.0 0.00 0.00 0.00 51 1006.9
20240415155011 65 308 0.0 10.0 0.00 0.00 0.00 52 1006.9
20240415154533 65 246 4.0 10.0 0.00 0.00 0.00 48 1006.9
20240415154011 65 320 4.0 10.0 0.00 0.00 0.00 50 1006.8
20240415153511 65 255 3.0 9.0 0.00 0.00 0.00 52 1007.0
20240415153019 64 354 4.0 8.0 0.00 0.00 0.00 53 1007.0
20240415152512 63 336 3.0 6.0 0.00 0.00 0.00 57 1007.1
20240415152013 63 0 0.0 5.0 0.00 0.00 0.00 58 1007.0
20240415151536 63 0 0.0 9.0 0.00 0.00 0.00 59 1007.1
20240415151011 63 253 3.0 9.0 0.00 0.00 0.00 56 1007.2
20240415150515 64 255 5.0 9.0 0.00 0.00 0.00 53 1007.2
20240415150012 64 335 0.0 6.0 0.00 0.00 0.00 57 1007.1
20240415145511 63 335 3.0 6.0 0.00 0.00 0.00 58 1007.2
20240415145011 63 307 4.0 6.0 0.00 0.00 0.00 58 1007.1
20240415144520 63 0 0.0 5.0 0.00 0.00 0.00 57 1007.1
20240415144009 64 0 1.0 7.0 0.00 0.00 0.00 56 1007.0
20240415143512 64 353 2.0 8.0 0.00 0.00 0.00 59 1007.1
20240415143017 63 342 1.0 8.0 0.00 0.00 0.00 59 1007.1
20240415142514 63 0 1.0 8.0 0.00 0.00 0.00 60 1007.2
20240415142013 62 0 0.0 4.0 0.00 0.00 0.00 61 1007.3
20240415141516 61 0 0.0 6.0 0.00 0.00 0.00 61 1007.2
20240415141011 61 0 1.0 6.0 0.00 0.00 0.00 64 1007.2
20240415140511 61 0 0.0 6.0 0.00 0.00 0.00 63 1007.1
20240415140013 61 0 0.0 6.0 0.00 0.00 0.00 64 1007.2
20240415135513 60 0 0.0 5.0 0.00 0.00 0.00 67 1007.1
20240415135012 59 0 0.0 5.0 0.00 0.00 0.00 67 1007.3
20240415134515 59 237 0.0 4.0 0.00 0.00 0.00 69 1007.2
20240415134014 58 0 0.0 3.0 0.00 0.00 0.00 71 1007.1
20240415133512 57 0 0.0 5.0 0.00 0.00 0.00 71 1007.1
20240415133015 56 0 0.0 5.0 0.00 0.00 0.00 74 1007.2
20240415132512 55 0 0.0 4.0 0.00 0.00 0.00 78 1007.2
20240415132013 54 0 0.0 4.0 0.00 0.00 0.00 79 1007.3
20240415131516 54 0 0.0 4.0 0.00 0.00 0.00 81 1007.5
20240415131012 53 0 0.0 0.0 0.00 0.00 0.00 84 1007.3
20240415130512 52 0 0.0 0.0 0.00 0.00 0.00 86 1007.4
20240415130015 51 0 0.0 0.0 0.00 0.00 0.00 88 1007.2
20240415125512 50 0 0.0 0.0 0.00 0.00 0.00 89 1007.1
20240415125011 49 0 0.0 0.0 0.00 0.00 0.00 90 1007.3
20240415124518 49 0 0.0 0.0 0.00 0.00 0.00 91 1007.3
20240415124011 49 0 0.0 0.0 0.00 0.00 0.00 92 1007.1
20240415123511 49 0 0.0 1.0 0.00 0.00 0.00 93 1007.1
20240415123016 48 0 0.0 1.0 0.00 0.00 0.00 93 1007.1
20240415122514 48 0 0.0 0.0 0.00 0.00 0.00 94 1007.1
20240415122014 47 0 0.0 0.0 0.00 0.00 0.00 94 1007.2
20240415121520 46 0 0.0 0.0 0.00 0.00 0.00 94 1007.2
20240415121011 46 0 0.0 0.0 0.00 0.00 0.00 94 1007.3
20240415120511 45 0 0.0 4.0 0.00 0.00 0.00 94 1007.3
20240415120016 45 0 0.0 5.0 0.00 0.00 0.00 94 1007.3
20240415115511 45 0 0.0 5.0 0.00 0.00 0.00 94 1007.2
20240415115011 44 0 1.0 5.0 0.00 0.00 0.00 95 1007.2
20240415114513 44 0 0.0 4.0 0.00 0.00 0.00 95 1007.1
20240415114009 43 0 0.0 4.0 0.00 0.00 0.00 94 1007.3
20240415113514 43 0 0.0 0.0 0.00 0.00 0.00 95 1007.2
20240415113016 43 0 0.0 0.0 0.00 0.00 0.00 94 1007.1
20240415112510 42 0 0.0 0.0 0.00 0.00 0.00 95 1007.0
20240415112013 42 0 0.0 0.0 0.00 0.00 0.00 94 1007.0
20240415111514 41 0 0.0 0.0 0.00 0.00 0.00 94 1007.0
20240415111010 41 0 0.0 0.0 0.00 0.00 0.00 94 1006.8
20240415110510 41 0 0.0 0.0 0.00 0.00 0.00 94 1006.9
20240415110022 40 0 0.0 0.0 0.00 0.00 0.00 94 1006.8
20240415105511 40 0 0.0 0.0 0.00 0.00 0.00 94 1006.6
20240415105012 40 0 0.0 0.0 0.00 0.00 0.00 94 1006.7
20240415104513 40 0 0.0 0.0 0.00 0.00 0.00 94 1006.6
20240415104011 40 0 0.0 0.0 0.00 0.00 0.00 94 1006.5
20240415103511 40 0 0.0 0.0 0.00 0.00 0.00 94 1006.4
20240415103019 40 0 0.0 0.0 0.00 0.00 0.00 94 1006.3
20240415102517 41 0 0.0 0.0 0.00 0.00 0.00 94 1006.3
20240415102013 41 0 0.0 0.0 0.00 0.00 0.00 94 1006.3
20240415101513 41 0 0.0 0.0 0.00 0.00 0.00 94 1006.2
20240415101009 41 0 0.0 0.0 0.00 0.00 0.00 94 1006.2
20240415100508 41 0 0.0 0.0 0.00 0.00 0.00 94 1006.2
20240415100016 41 0 0.0 0.0 0.00 0.00 0.00 94 1006.1
20240415095515 41 0 0.0 0.0 0.00 0.00 0.00 94 1005.9
20240415095015 41 0 0.0 2.0 0.00 0.00 0.00 94 1005.8
20240415094515 41 0 0.0 2.0 0.00 0.00 0.00 94 1005.8
20240415094011 42 0 1.0 4.0 0.00 0.00 0.00 94 1005.6
20240415093510 42 244 1.0 4.0 0.00 0.00 0.00 94 1005.6
20240415093015 42 245 2.0 4.0 0.00 0.00 0.00 94 1005.6
20240415092515 41 245 1.0 4.0 0.00 0.00 0.00 94 1005.5
20240415092013 41 245 1.0 4.0 0.00 0.00 0.00 94 1005.5
20240415091513 40 0 0.0 0.0 0.00 0.00 0.00 94 1005.5
20240415091009 40 0 0.0 0.0 0.00 0.00 0.00 93 1005.4
20240415090510 40 0 0.0 0.0 0.00 0.00 0.00 93 1005.4
20240415090012 40 0 0.0 0.0 0.00 0.00 0.00 93 1005.2
20240415085511 40 0 0.0 0.0 0.00 0.00 0.00 93 1005.2
20240415085017 40 0 0.0 0.0 0.00 0.00 0.00 93 1005.3
20240415084511 40 0 0.0 0.0 0.00 0.00 0.00 93 1005.2
20240415084011 40 0 0.0 0.0 0.00 0.00 0.00 92 1005.2
20240415083511 40 0 0.0 0.0 0.00 0.00 0.00 92 1005.1
20240415083016 40 0 0.0 0.0 0.00 0.00 0.00 92 1005.0
20240415082508 40 0 0.0 0.0 0.00 0.00 0.00 92 1005.0
20240415082013 41 0 0.0 0.0 0.00 0.00 0.00 92 1005.0
20240415081527 41 0 0.0 0.0 0.00 0.00 0.00 92 1004.9
20240415081011 41 0 0.0 0.0 0.00 0.00 0.00 92 1004.8
20240415080508 42 0 0.0 0.0 0.00 0.00 0.00 92 1004.6
20240415080016 42 0 0.0 0.0 0.00 0.00 0.00 92 1004.5
20240415075509 42 0 0.0 0.0 0.00 0.00 0.00 92 1004.3
20240415075011 42 0 0.0 0.0 0.00 0.00 0.00 92 1004.3
20240415074515 42 0 0.0 0.0 0.00 0.00 0.00 92 1004.3
20240415074010 43 0 0.0 0.0 0.00 0.00 0.00 92 1004.2
20240415073515 43 0 0.0 0.0 0.00 0.00 0.00 92 1004.2
20240415073013 43 0 0.0 0.0 0.00 0.00 0.00 92 1004.2
20240415072511 43 0 0.0 0.0 0.00 0.00 0.00 92 1004.2
20240415072014 43 0 0.0 0.0 0.00 0.00 0.00 92 1004.3
20240415071512 43 0 0.0 0.0 0.00 0.00 0.00 92 1004.2
20240415071011 43 0 0.0 0.0 0.00 0.00 0.00 92 1004.2
20240415070511 43 0 0.0 0.0 0.00 0.00 0.00 92 1004.2
20240415070016 43 0 0.0 0.0 0.00 0.00 0.00 92 1004.3
20240415065511 43 0 0.0 0.0 0.00 0.00 0.00 91 1004.3
20240415065011 43 0 0.0 0.0 0.00 0.00 0.00 91 1004.4
20240415064515 43 0 0.0 0.0 0.00 0.00 0.00 91 1004.3
20240415064009 43 0 0.0 0.0 0.00 0.00 0.00 91 1004.4
20240415063512 44 0 0.0 0.0 0.00 0.00 0.00 91 1004.4
20240415063018 44 0 0.0 0.0 0.00 0.00 0.00 91 1004.4
20240415062511 44 0 0.0 0.0 0.00 0.00 0.00 91 1004.4
20240415062013 44 0 0.0 0.0 0.00 0.00 0.00 91 1004.3
20240415061513 44 0 0.0 0.0 0.00 0.00 0.00 90 1004.3
20240415061010 44 0 0.0 0.0 0.00 0.00 0.00 90 1004.4
20240415060508 44 0 0.0 0.0 0.00 0.00 0.00 90 1004.4
20240415060025 44 0 0.0 0.0 0.00 0.00 0.00 90 1004.5
20240415055507 44 0 0.0 0.0 0.00 0.00 0.00 90 1004.3
20240415055012 44 0 0.0 0.0 0.00 0.00 0.00 90 1004.4
20240415054514 45 0 0.0 0.0 0.00 0.00 0.00 90 1004.5
20240415054016 45 0 0.0 0.0 0.00 0.00 0.00 90 1004.4
20240415053509 45 0 0.0 0.0 0.00 0.00 0.00 90 1004.4
20240415053013 45 0 0.0 0.0 0.00 0.00 0.00 90 1004.5
20240415052511 45 0 0.0 0.0 0.00 0.00 0.00 90 1004.5
20240415052013 45 0 0.0 0.0 0.00 0.00 0.00 89 1004.6
20240415051517 45 0 0.0 0.0 0.00 0.00 0.00 89 1004.6
20240415051011 45 0 0.0 0.0 0.00 0.00 0.00 89 1004.6
20240415050513 46 0 0.0 0.0 0.00 0.00 0.00 89 1004.6
20240415050014 46 0 0.0 0.0 0.00 0.00 0.00 88 1004.6
20240415045510 46 0 0.0 0.0 0.00 0.00 0.00 88 1004.6
20240415045008 46 0 0.0 0.0 0.00 0.00 0.00 88 1004.6
20240415044513 46 0 0.0 0.0 0.00 0.00 0.00 88 1004.6
20240415044009 46 0 0.0 0.0 0.00 0.00 0.00 88 1004.7
20240415043508 47 0 0.0 0.0 0.00 0.00 0.00 88 1004.7
20240415043015 47 0 0.0 0.0 0.00 0.00 0.00 88 1004.8
20240415042510 47 0 0.0 0.0 0.00 0.00 0.00 88 1004.8
20240415042013 47 0 0.0 0.0 0.00 0.00 0.00 88 1004.8
20240415041512 47 0 0.0 0.0 0.00 0.00 0.00 92 1005.0
20240415041008 47 0 0.0 0.0 0.00 0.00 0.00 88 1004.9
20240415040507 47 0 0.0 0.0 0.00 0.00 0.00 88 1005.0
20240415040014 47 0 0.0 0.0 0.00 0.00 0.00 88 1005.1
20240415035507 47 0 0.0 0.0 0.00 0.00 0.00 87 1005.1
20240415035011 47 0 0.0 0.0 0.00 0.00 0.00 87 1005.1
20240415034520 47 0 0.0 0.0 0.00 0.00 0.00 87 1005.1
20240415034012 47 0 0.0 0.0 0.00 0.00 0.00 87 1005.0
20240415033512 47 0 0.0 0.0 0.00 0.00 0.00 87 1005.1
20240415033017 48 0 0.0 0.0 0.00 0.00 0.00 87 1005.1
20240415032512 48 0 0.0 0.0 0.00 0.00 0.00 87 1005.2
20240415032012 48 0 0.0 0.0 0.00 0.00 0.00 86 1005.5
20240415031519 48 0 0.0 0.0 0.00 0.00 0.00 86 1005.5
20240415031015 48 0 0.0 0.0 0.00 0.00 0.00 86 1005.6
20240415030511 48 0 0.0 0.0 0.00 0.00 0.00 86 1005.5
20240415030015 48 0 0.0 0.0 0.00 0.00 0.00 86 1005.6
20240415025513 48 0 0.0 0.0 0.00 0.00 0.00 86 1005.5
20240415025015 48 0 0.0 0.0 0.00 0.00 0.00 86 1005.5
20240415024518 48 0 0.0 0.0 0.00 0.00 0.00 86 1005.6
20240415024011 48 0 0.0 0.0 0.00 0.00 0.00 86 1005.7
20240415023511 48 0 0.0 0.0 0.00 0.00 0.00 86 1005.9
20240415023016 48 0 0.0 0.0 0.00 0.00 0.00 86 1005.8
20240415022511 48 0 0.0 0.0 0.00 0.00 0.00 86 1005.8
20240415022013 48 0 0.0 0.0 0.00 0.00 0.00 86 1005.8